Tracking 32938 objects as of 13-Jan-2026
HD Live streaming from Space Station
objects crossing your sky now

STARLINK-1624

Track STARLINK-1624 now!
10-day predictions
STARLINK-1624 is classified as:


NORAD ID: 46130
Int'l Code: 2020-057P
Perigee: 408.0 km
Apogee: 421.0 km
Inclination: 53.0 °
Period: 92.7 minutes
Semi major axis: 6785 km
RCS: Unknown
Launch date: August 18, 2020
Source: United States (US)
Launch site: AIR FORCE EASTERN TEST RANGE (AFETR)
Your satellite tracking list
Your tracking list is empty




NASA's NSSDC Master Catalog

Two Line Element Set (TLE):
1 46130U 20057P   26013.00002315  .00091971  00000-0  14266-2 0  9999
2 46130  53.0478 143.5673 0009588 173.6765 307.4960 15.53211426  5922
Source of the keplerian elements: AFSPC